This is the latest recevied weather packets stored in our database for station/object EW2905. If no packets are shown the sender has not sent any weather packets the latest 10 day(s).
| Time | Temp. | Humidity | Pressure | Rain* | Wind** | Luminosity | Snow |
|---|---|---|---|---|---|---|---|
| 1777824036 | 24.44° C | 41% | 1021.4 hPa | 0 mm | - | - | - |
| 1777823856 | 23.89° C | 38% | 1021.4 hPa | 0 mm | - | - | - |
| 1777823676 | 23.33° C | 39% | 1021.4 hPa | 0 mm | - | - | - |
| 1777823495 | 23.33° C | 38% | 1021.4 hPa | 0 mm | - | - | - |
| 1777823316 | 23.33° C | 39% | 1021.4 hPa | 0 mm | - | - | - |
| 1777823136 | 23.33° C | 40% | 1021.4 hPa | 0 mm | - | - | - |
| 1777822956 | 23.33° C | 41% | 1021.4 hPa | 0 mm | - | - | - |
| 1777822776 | 22.78° C | 39% | 1021.4 hPa | 0 mm | - | - | - |
| 1777822416 | 24.44° C | 36% | 1021.4 hPa | 0 mm | - | - | - |
| 1777822236 | 23.89° C | 38% | 1021.4 hPa | 0 mm | - | - | - |
| 1777822056 | 23.33° C | 37% | 1021.4 hPa | 0 mm | - | - | - |
| 1777821876 | 23.33° C | 40% | 1021.4 hPa | 0 mm | - | - | - |
| 1777821696 | 24.44° C | 38% | 1021.4 hPa | 0 mm | - | - | - |
| 1777821515 | 24.44° C | 38% | 1021.4 hPa | 0 mm | - | - | - |
| 1777821335 | 23.89° C | 36% | 1021.4 hPa | 0 mm | - | - | - |
| 1777821156 | 23.89° C | 38% | 1021.4 hPa | 0 mm | - | - | - |
| 1777820976 | 24.44° C | 38% | 1021.4 hPa | 0 mm | - | - | - |
| 1777820796 | 23.89° C | 39% | 1021.4 hPa | 0 mm | - | - | - |
| 1777820616 | 23.89° C | 39% | 1021.4 hPa | 0 mm | - | - | - |
| 1777820436 | 23.33° C | 38% | 1021.4 hPa | 0 mm | - | - | - |
| 1777820256 | 24.44° C | 37% | 1021.4 hPa | 0 mm | - | - | - |
| 1777820076 | 23.89° C | 37% | 1021.4 hPa | 0 mm | - | - | - |
| 1777819896 | 23.89° C | 37% | 1021.4 hPa | 0 mm | - | - | - |
| 1777819716 | 23.89° C | 39% | 1021.4 hPa | 0 mm | - | - | - |
| 1777819536 | 23.89° C | 39% | 1021.4 hPa | 0 mm | - | - | - |
* Rain latest hour (hover to see other rain measurements)
** Current wind speed in m/s (hover to see current wind gust speed)